Flag for Germany Weather past 2 weeks in Achern, Baden-Württemberg, Germany

Now
73 °F

Sunny.


Feels Like: 77 °F
Forecast: 64 / 78 °F
Wind: 3 mph from North

Location: Karlsruhe - Baden Wurttemberg

Current Time: Aug 3, 2015 at 11:01:05 AM

Latest Report: Aug 3, 2015 at 10:20 AM


Visibility: 10 mi

Pressure: 30.04 "Hg

Humidity: 53%

Dew point: 55 °F

Location of AchernLocation

Historic Weather in Achern — Graph

°F

Achern temperature yesterday

Maximum temperature yesterday: 84 °F (at 3:50 PM)
Minimum temperature yesterday: 54 °F (at 6:20 AM)
Average temperature yesterday: 73 °F

Past Weeks' High & Low Weather Summary

 TemperatureHumidityPressure
High91 °F (Jul 21, 5:50 PM)94% (Aug 2, 6:20 AM)30.12 "Hg (Aug 2, 6:20 AM)
Low46 °F (Jul 26, 6:50 AM)27% (Aug 2, 4:50 PM)29.65 "Hg (Jul 24, 8:20 PM)
Average71 °F54%29.93 "Hg
* Reported Jul 19 9:20 AM — Aug 3 9:50 AM, Achern, Weather by CustomWeather, © 2015

Note: Actual official high and low records may vary slightly from our data, if they occured in-between our weather recording intervals... More about our weather records

Advertising

Achern weather history for previous 24 hours

 ConditionsComfort  
Time TempWeatherWind HumidityBarometerVisibility
9:50 AM
Mon, Aug 3
72 °FPassing clouds.5 mph57%30.04 "HgN/A
9:20 AM70 °FSunny.2 mph60%30.04 "Hg10 mi
8:50 AM68 °FSunny.3 mph64%30.04 "Hg10 mi
8:20 AM66 °FSunny.1 mph68%30.04 "Hg10 mi
7:50 AM63 °FSunny.No wind77%30.04 "Hg10 mi
7:20 AM61 °FSunny.1 mph83%30.04 "Hg10 mi
6:50 AM57 °FClear.2 mph88%30.04 "Hg10 mi
6:20 AM55 °FClear.2 mph94%30.04 "Hg10 mi
5:50 AM54 °FClear.3 mph94%30.01 "Hg10 mi
5:20 AM57 °FClear.No wind88%30.01 "Hg10 mi
4:50 AM57 °FClear.2 mph88%30.01 "Hg10 mi
12:20 AM63 °FClear.2 mph68%30.01 "Hg10 mi
11:20 PM
Sun, Aug 2
66 °FClear.No wind56%30.01 "Hg10 mi
10:50 PM70 °FClear.No wind50%30.01 "Hg10 mi
10:20 PM72 °FClear.1 mph47%30.01 "Hg10 mi
9:50 PM73 °FSunny.3 mph41%30.01 "Hg10 mi
9:20 PM77 °FSunny.6 mph34%30.01 "Hg10 mi
8:50 PM77 °FSunny.9 mph36%30.01 "Hg10 mi
8:20 PM81 °FSunny.8 mph30%30.01 "Hg10 mi
7:50 PM82 °FSunny.9 mph28%30.01 "Hg10 mi
7:20 PM82 °FSunny.9 mph28%30.01 "Hg10 mi
6:50 PM84 °FSunny.9 mph27%30.01 "Hg10 mi
6:20 PM84 °FPassing clouds.8 mph27%30.01 "HgN/A
5:50 PM84 °FPassing clouds.8 mph29%30.01 "HgN/A
5:20 PM84 °FPassing clouds.8 mph27%30.04 "HgN/A
4:50 PM84 °FPassing clouds.8 mph27%30.04 "HgN/A
4:20 PM84 °FSunny.8 mph29%30.04 "Hg10 mi
3:50 PM84 °FSunny.9 mph29%30.04 "Hg10 mi
3:20 PM82 °FSunny.8 mph30%30.07 "Hg10 mi
2:50 PM81 °FSunny.8 mph34%30.07 "Hg10 mi
2:20 PM81 °FPassing clouds.8 mph37%30.07 "HgN/A
1:50 PM79 °FPassing clouds.8 mph42%30.07 "HgN/A
1:20 PM79 °FSunny.6 mph42%30.09 "Hg10 mi
12:50 PM77 °FSunny.5 mph44%30.09 "Hg10 mi
12:20 PM75 °FSunny.5 mph44%30.09 "Hg10 mi
11:50 AM75 °FSunny.3 mph44%30.09 "Hg10 mi
11:20 AM73 °FSunny.3 mph50%30.09 "Hg10 mi
Weather by CustomWeather, © 2015

See weather overviewHow to use our weather pages